Location: Observatorio Las Palmas
(29.0667°N, 110.9333°W)
Time: 13:08:59
(UTC-07:00)

Skynet4D Del rocket - Visible Passes

Search period start: 26 November 2014 00:00
Search period end: 06 December 2014 00:00
Orbit: 763 x 1291 km, 26.9° (Epoch: 25 November)

Date Brightness Start Highest point End Pass type
(mag) Time Alt. Az. Time Alt. Az. Time Alt. Az.
26 Nov 5.4 03:53:31 32° ESE 03:53:31 32° ESE 03:57:24 10° E visible
26 Nov 4.2 05:39:11 21° WSW 05:43:37 75° S 05:50:57 10° E visible
27 Nov 4.0 04:32:37 66° SSE 04:32:37 66° SSE 04:39:09 10° E visible
27 Nov 4.3 06:18:42 10° W 06:25:09 73° S 06:32:37 10° ESE visible
28 Nov 6.3 03:26:02 17° E 03:26:02 17° E 03:27:26 10° E visible
28 Nov 4.0 05:11:41 43° WSW 05:13:51 75° S 05:20:49 10° E visible
29 Nov 5.0 04:05:04 38° ESE 04:05:04 38° ESE 04:09:07 10° E visible
29 Nov 4.2 05:50:43 19° W 05:55:20 69° S 06:02:26 10° ESE visible
30 Nov 3.8 04:44:06 73° S 04:44:08 73° S 04:50:45 10° E visible
30 Nov 4.6 06:30:42 10° W 06:36:48 53° SSW 06:43:49 10° ESE visible
01 Dec 6.1 03:37:27 19° E 03:37:27 19° E 03:39:09 10° E visible
01 Dec 4.1 05:23:06 35° WSW 05:25:36 63° S 05:32:16 10° ESE visible
02 Dec 4.8 04:16:28 43° ESE 04:16:28 43° ESE 04:20:44 10° ESE visible
02 Dec 4.6 06:02:06 14° W 06:07:00 46° SSW 06:13:31 10° SE visible
03 Dec 3.9 04:55:28 56° SSW 04:55:54 57° SSW 05:02:09 10° ESE visible
04 Dec 5.9 03:48:50 21° ESE 03:48:50 21° ESE 03:50:47 10° ESE visible
04 Dec 4.7 05:34:29 25° WSW 05:37:16 38° SSW 05:43:13 10° SE visible
05 Dec 4.7 04:27:51 39° SSE 04:27:51 39° SSE 04:32:05 10° ESE visible
05 Dec 5.5 06:14:02 10° WSW 06:18:34 23° SSW 06:23:32 10° SSE visible
